NOAA NWS Hourly Roundups by Site

Regional Weather Roundup for Seattle, WA

To Select Another Site Choose from List

Select Site:  

000
ASUS46 KSEW 220210
RWRWA

WASHINGTON REGIONAL WEATHER ROUNDUP
NATIONAL WEATHER SERVICE SEATTLE WA
700 PM PDT THU MAR 21 2019

NOTE:"FAIR" INDICATES FEW OR NO CLOUDS BELOW 12,000 FEET WITH NO
SIGNIFICANT WEATHER AND/OR OBSTRUCTIONS TO VISIBILITY.

WAZ507-509-555>559-220300-
SEATTLE, TACOMA, EVERETT, AND VICINITY

CITY           SKY/WX    TMP DP  RH WIND       PRES   REMARKS
EVERETT        FAIR      56  44  64 S8        30.03S
BOEING FIELD   MOCLDY    55  44  66 S6        30.04S
RENTON         MOCLDY    57  44  62 S7        30.04S
SEATAC AIRPORT MOCLDY    54  44  69 SW10      30.04S
JBLM-MCCHORD   NOT AVBL
PUYALLUP       NOT AVBL
BREMERTON      NOT AVBL
JBLM-FT LEWIS  NOT AVBL
TACOMA NARROWS MOCLDY    52  44  74 SW7       30.05S
$$

WAZ001-503-506-510-514-515-220300-
NORTH INTERIOR

CITY           SKY/WX    TMP DP  RH WIND       PRES   REMARKS
BELLINGHAM     FAIR      53  42  66 S10       29.99F
FRIDAY HARBOR  FAIR      52  44  74 SW7       30.00F
PORT ANGELES   MOCLDY    50  45  83 W13       30.04S
EDIZ HOOK      NOT AVBL
PORT TOWNSEND  NOT AVBL
NAS WHIDBEY    NOT AVBL
ARLINGTON      NOT AVBL
BURLINGTON     NOT AVBL
$$

WAZ020-022-039-040-504-511-512-220300-
SOUTHWEST INTERIOR

CITY           SKY/WX    TMP DP  RH WIND       PRES   REMARKS
SHELTON        FAIR      52  43  71 SW16      30.03F
OLYMPIA        NOT AVBL
CHEHALIS       NOT AVBL
KELSO          NOT AVBL
VANCOUVER      CLOUDY    55  45  68 W3        30.07S
SCAPPOOSE, OR  CLOUDY    56  47  71 VRB5      30.06S
PORTLAND, OR   MOCLDY    57  45  64 SW5       30.07S
$$

WAZ021-516-517-220300-
WASHINGTON COAST

CITY           SKY/WX    TMP DP  RH WIND       PRES   REMARKS
FORKS          CLOUDY    49  47  93 SE3       30.06F
HOQUIAM        CLOUDY    52  48  86 SW5       30.07F
ASTORIA, OR    NOT AVBL
$$

WAZ019-023-024-040-567>569-220300-
CASCADE MOUNTAINS AND COLUMBIA GORGE

CITY           SKY/WX    TMP DP  RH WIND       PRES   REMARKS
STAMPEDE PASS  NOT AVBL
TROUTDALE, OR  FAIR      56  45  66 SW5       30.07S
HOOD RIVER, OR NOT AVBL
THE DALLES, OR FAIR      56  40  55 NW14      29.98R
$$

WAZ026-027-041>044-520-521-220300-
EAST SLOPES

CITY           SKY/WX    TMP DP  RH WIND       PRES   REMARKS
OMAK           FAIR      57  35  43 S6        29.88F
WENATCHEE      NOT AVBL
ELLENSBURG     FAIR      59  37  44 NW13      29.92S
YAKIMA         FAIR      63  33  32 S5        29.91S
SUNNYSIDE ARPT FAIR      62  41  46 CALM      29.92S
YAKIMA TC      NOT AVBL
$$

WAZ028-034-035-220300-
COLUMBIA BASIN

CITY           SKY/WX    TMP DP  RH WIND       PRES   REMARKS
EPHRATA        FAIR      54  38  54 SW8       29.90F
MOSES LAKE     FAIR      61  36  39 SW7       29.91S
PASCO          FAIR      59  40  49 SE8       29.92F
RICHLAND ARPT  NOT AVBL
HERMISTON, OR  FAIR      62  37  39 W6        29.92S
$$

WAZ036>038-220300-
NORTHEAST WASHINGTON

CITY           SKY/WX    TMP DP  RH WIND       PRES   REMARKS
SPOKANE GEIGER MOCLDY    53  34  48 SW8       29.91S
SPOKANE FELTS  FAIR      58  34  40 SW9       29.90S
FAIRCHILD AFB  NOT AVBL
COEURDALENE,ID NOT AVBL
DEER PARK      FAIR      52  31  44 S6        29.89F
$$

WAZ029>033-220300-
SOUTHEAST WASHINGTON

CITY           SKY/WX    TMP DP  RH WIND       PRES   REMARKS
PULLMAN        FAIR      43  38  82 NW3       29.94S
LEWISTON, ID   NOT AVBL
WALLA WALLA    FAIR      56  38  50 SW3       29.94R
PENDLETON, OR  FAIR      55  41  59 N3        29.93S
$$



 

View Past Reports for Seattle, WA.

Products Courtesy of NOAA-NWS
NWS Information Parsing Script by Ken True at Saratoga Weather - Script by SE Lincoln Weather.